Bowling Green, KY

8:04 AM CDT on June 25, 2017 (GMT -0500)
Bowling Green-Warren County Regional

Weather History for KBWG - January, 2013

Change the Weather History Date:

Thursday, January 10, 2013

  Actual Average Record
Temperature  
Mean Temperature 57 °F 35 °F  
Max Temperature 66 °F 45 °F 70 °F (1949)
Min Temperature 48 °F 26 °F -19 °F (1879)
Degree Days  
Heating Degree Days 8 30  
Month to date heating degree days 265 295  
Since 1 July heating degree days 1690 1879  
Cooling Degree Days 0 0  
Month to date cooling degree days 0 0  
Year to date cooling degree days 0 0  
Growing Degree Days 6 (Base 50)    
Moisture  
Dew Point 51 °F    
Average Humidity 85    
Maximum Humidity 96    
Minimum Humidity 73    
Precipitation  
Precipitation 0.73 in 0.11 in 4.38 in (1974)
Month to date precipitation 0.93 1.16  
Year to date precipitation 0.93 1.16  
Snow  
Snow 0.00 in 0.10 in 3.00 in (1954)
Month to date snowfall 0.0 0.9  
Since 1 July snowfall T 2.1  
Snow Depth 0.00 in    
Sea Level Pressure  
Sea Level Pressure 30.27 in    
Wind  
Wind Speed 9 mph (East)    
Max Wind Speed 18 mph    
Max Gust Speed 28 mph    
Visibility 8 miles    
Events Rain    
T = Trace of Precipitation, MM = Missing Value Source: NWS Daily Summary

Daily Weather History Graph

Daily Weather History Graph

Search for Another Location

Airport or City:

Trip Planner

Search our weather history database for the weather conditions in past years. The results will help you decide how hot, cold, wet, or windy it might be!

Date:

Astronomy

Jan. 10, 2013 Rise Set
Actual Time 6:58 AM CST 4:48 PM CST
Civil Twilight 6:30 AM CST 5:16 PM CST
Nautical Twilight 5:58 AM CST 5:48 PM CST
Astronomical Twilight 5:26 AM CST 6:20 PM CST
Moon 5:38 AM CST (1/10) 3:54 PM CST (1/10)
Length of Visible Light 10h 46m
Length of Day
9h 49m
Waning Crescent, 2% of the Moon is Illuminated
Jan 10
Waning Crescent
Jan 11
New
Jan 18
First Quarter
Jan 26
Full
Feb 3
Last Quarter

Hourly Weather History & Observations

Time (CST) Temp. Dew Point Humidity Pressure Visibility Wind Dir Wind Speed Gust Speed Precip Events Conditions
12:53 AM 50.0 °F 45.0 °F 83% 30.44 in 10.0 mi NE 8.1 mph - N/A   Overcast
1:53 AM 51.1 °F 44.1 °F 77% 30.45 in 10.0 mi ENE 8.1 mph - 0.00 in Rain Light Rain
2:53 AM 50.0 °F 45.0 °F 83% 30.43 in 9.0 mi ENE 6.9 mph - 0.02 in Rain Light Rain
3:24 AM 48.2 °F 44.6 °F 87% 30.41 in 8.0 mi ENE 8.1 mph - 0.01 in Rain Light Rain
3:53 AM 48.9 °F 45.0 °F 86% 30.40 in 7.0 mi ENE 8.1 mph - 0.01 in Rain Light Rain
4:53 AM 48.9 °F 45.0 °F 86% 30.38 in 5.0 mi ENE 8.1 mph - 0.17 in Rain Rain
5:50 AM 48.2 °F 44.6 °F 87% 30.37 in 2.0 mi ENE 11.5 mph - 0.22 in Rain Heavy Rain
5:53 AM 48.0 °F 45.0 °F 89% 30.38 in 2.5 mi ENE 10.4 mph - 0.23 in Rain Heavy Rain
6:16 AM 48.2 °F 46.4 °F 93% 30.37 in 2.5 mi ENE 9.2 mph - 0.17 in Rain Heavy Rain
6:25 AM 48.2 °F 46.4 °F 93% 30.37 in 4.0 mi ENE 9.2 mph - 0.17 in Rain Light Rain
6:53 AM 48.0 °F 46.0 °F 93% 30.37 in 7.0 mi ENE 8.1 mph - 0.18 in Rain Light Rain
7:23 AM 48.2 °F 46.4 °F 93% 30.36 in 6.0 mi ENE 6.9 mph - 0.01 in Rain Light Rain
7:51 AM 48.2 °F 46.4 °F 93% 30.36 in 3.0 mi East 8.1 mph - 0.08 in Rain Light Rain
7:53 AM 48.9 °F 46.9 °F 93% 30.37 in 3.0 mi East 8.1 mph - 0.08 in Rain Light Rain
8:01 AM 48.2 °F 46.4 °F 93% 30.36 in 4.0 mi ENE 8.1 mph - 0.00 in Rain Light Rain
8:10 AM 48.2 °F 46.4 °F 93% 30.36 in 6.0 mi ENE 6.9 mph - 0.00 in   Overcast
8:38 AM 50.0 °F 46.4 °F 87% 30.36 in 1.8 mi East 6.9 mph - 0.03 in Rain Rain
8:46 AM 50.0 °F 48.2 °F 94% 30.36 in 3.0 mi ENE 6.9 mph - 0.03 in Rain Light Rain
8:53 AM 50.0 °F 48.0 °F 93% 30.36 in 6.0 mi ENE 4.6 mph - 0.03 in   Overcast
9:53 AM 52.0 °F 50.0 °F 93% 30.36 in 8.0 mi East 3.5 mph - N/A   Overcast
11:04 AM 55.4 °F 51.8 °F 88% 30.31 in 10.0 mi East 5.8 mph - N/A   Overcast
11:53 AM 57.0 °F 53.1 °F 87% 30.27 in 10.0 mi East 4.6 mph - N/A   Overcast
12:53 PM 57.9 °F 55.0 °F 90% 30.25 in 10.0 mi East 4.6 mph - 0.01 in   Overcast
1:53 PM 60.1 °F 55.9 °F 86% 30.22 in 10.0 mi ESE 6.9 mph - N/A   Mostly Cloudy
2:33 PM 60.8 °F 57.2 °F 88% 30.21 in 10.0 mi ESE 5.8 mph - N/A   Mostly Cloudy
2:53 PM 61.0 °F 57.0 °F 87% 30.22 in 10.0 mi ESE 5.8 mph - N/A   Scattered Clouds
3:26 PM 60.8 °F 57.2 °F 88% 30.20 in 10.0 mi ESE 3.5 mph - N/A   Mostly Cloudy
3:45 PM 60.8 °F 57.2 °F 88% 30.20 in 10.0 mi ESE 4.6 mph - N/A   Mostly Cloudy
3:53 PM 61.0 °F 57.9 °F 90% 30.19 in 10.0 mi ESE 4.6 mph - N/A   Mostly Cloudy
4:46 PM 64.4 °F 57.2 °F 77% 30.16 in 10.0 mi SSE 10.4 mph - N/A   Overcast
4:53 PM 64.0 °F 57.9 °F 80% 30.16 in 10.0 mi SE 11.5 mph - N/A   Overcast
5:53 PM 64.0 °F 57.9 °F 80% 30.12 in 10.0 mi SE 10.4 mph 19.6 mph N/A   Overcast
6:37 PM 64.4 °F 57.2 °F 77% 30.10 in 10.0 mi SSE 13.8 mph 19.6 mph N/A   Scattered Clouds
6:53 PM 64.9 °F 57.9 °F 78% 30.08 in 10.0 mi SSE 15.0 mph 23.0 mph N/A   Partly Cloudy
7:53 PM 64.9 °F 57.0 °F 75% 30.05 in 10.0 mi SSE 16.1 mph 26.5 mph N/A   Partly Cloudy
8:53 PM 64.9 °F 57.0 °F 75% 30.05 in 10.0 mi SSE 16.1 mph 23.0 mph N/A   Clear
9:53 PM 64.9 °F 55.9 °F 73% 30.04 in 10.0 mi SSE 13.8 mph - N/A   Scattered Clouds
10:53 PM 64.9 °F 55.0 °F 70% 30.01 in 10.0 mi SSE 11.5 mph - N/A   Overcast
11:53 PM 66.0 °F 55.9 °F 70% 30.00 in 10.0 mi South 12.7 mph - 0.00 in   Overcast